Flag for Canada Weather past 2 weeks in Hay River, Northwest Territories, Canada

28 °F

Passing clouds.

Feels Like: 22 °F
Forecast: 18 / 30 °F
Wind: 6 mph from Southwest

Location: Hay River

Current Time: Nov 29, 2015 at 5:52:09 PM

Latest Report: Nov 29, 2015 at 5:00 PM

Visibility: 15 mi

Pressure: 29.78 "Hg

Humidity: 80%

Dew point: 23 °F

Location of Hay RiverLocation

Historic Weather in Hay River — Graph


Hay River temperature yesterday

Maximum temperature yesterday: 28 °F (at 10:00 PM)
Minimum temperature yesterday: 10 °F (at 7:00 AM)
Average temperature yesterday: 20 °F

Past Weeks' High & Low Weather Summary

High32 °F (Nov 29, 4:00 AM)100% (Nov 14, 8:52 PM)30.44 "Hg (Nov 14, 8:52 PM)
Low-9 °F (Nov 20, 5:00 AM)72% (Nov 20, 1:00 PM)29.35 "Hg (Nov 21, 5:00 PM)
Average14 °F86%29.93 "Hg
* Reported Nov 14 4:00 PM — Nov 29 4:00 PM, Hay River, Weather by CustomWeather, © 2015

Note: Actual official high and low records may vary slightly from our data, if they occured in-between our weather recording intervals... More about our weather records


Hay River weather history for previous 24 hours

Time TempWeatherWind HumidityBarometerVisibility
4:00 PM
Sun, Nov 29
30 °FPassing clouds.8 mph75%29.80 "Hg15 mi
3:00 PM30 °FScattered clouds.7 mph75%29.81 "Hg15 mi
2:00 PM32 °FScattered clouds.6 mph75%29.82 "Hg15 mi
1:00 PM30 °FScattered clouds.6 mph80%29.83 "Hg15 mi
12:00 PM28 °FPartly sunny.6 mph80%29.85 "Hg15 mi
11:00 AM28 °FPartly sunny.6 mph80%29.86 "Hg15 mi
10:00 AM25 °FBroken clouds.5 mph86%29.86 "Hg15 mi
9:00 AM25 °FPassing clouds.5 mph86%29.88 "Hg15 mi
8:00 AM25 °FPassing clouds.6 mph86%29.87 "Hg15 mi
7:00 AM28 °FPassing clouds.5 mph80%29.87 "Hg15 mi
6:00 AM28 °FPassing clouds.7 mph80%29.87 "Hg15 mi
5:00 AM27 °FPassing clouds.8 mph80%29.86 "Hg15 mi
4:00 AM32 °FPassing clouds.9 mph75%29.85 "Hg15 mi
3:00 AM28 °FPassing clouds.8 mph80%29.86 "Hg15 mi
2:00 AM27 °FPassing clouds.8 mph80%29.85 "Hg15 mi
1:00 AM27 °FPassing clouds.8 mph80%29.85 "Hg15 mi
12:00 AM27 °FPassing clouds.5 mph86%29.85 "Hg15 mi
11:00 PM
Sat, Nov 28
28 °FPassing clouds.6 mph80%29.83 "Hg15 mi
10:00 PM28 °FPassing clouds.8 mph74%29.82 "Hg15 mi
9:00 PM27 °FPassing clouds.10 mph80%29.82 "Hg15 mi
8:00 PM27 °FPassing clouds.10 mph74%29.82 "Hg15 mi
7:00 PM23 °FPassing clouds.7 mph80%29.83 "Hg15 mi
6:00 PM19 °FPassing clouds.5 mph79%29.84 "Hg15 mi
5:00 PM27 °FPassing clouds.8 mph74%29.85 "Hg15 mi
Weather by CustomWeather, © 2015

See weather overviewHow to use our weather pages